This demonstration page uses our WeatherBlox Daily Observations layout. Learn more.

Left ArrowRight Arrow

39.92423, -83.80882

Hourly Observations for April 6, 2022

Temp ( °F °C ) Dew Point ( °F °C ) Humidity (%) Winds ( mph kmh ) Pressure ( in mb ) Visibility ( mi km ) Precip ( " mm )
12:56 am 00:56 Cloudy with Fog N/A N/A N/A E 5 7 N/A 0 0 0.00 0.00
1:56 am 01:56 Cloudy with Fog 43 6 N/A N/A Calm 29.69 1006 1 1 0.00 0.00
2:06 am 02:06 Cloudy with Fog 43 6 N/A N/A Calm 29.71 1006 0 0 0.00 0.00
2:56 am 02:56 Cloudy with Fog 41 5 N/A N/A ESE 5 7 29.70 1006 0 0 0.00 0.00
3:38 am 03:38 Cloudy with Fog 43 6 N/A N/A S 7 11 29.70 1006 1 1 0.00 0.00
3:56 am 03:56 Cloudy with Fog 43 6 N/A N/A SSE 7 11 29.70 1006 0 0 0.00 0.00
4:40 am 04:40 Cloudy with Fog 41 5 N/A N/A SE 5 7 29.68 1005 1 1 0.00 0.00
4:56 am 04:56 Cloudy with Fog 41 5 N/A N/A SSE 3 6 29.68 1005 1 1 0.00 0.00
5:17 am 05:17 Cloudy with Mist and Fog 39 4 N/A N/A SSE 3 6 29.69 1005 1 1 0.00 0.00
5:40 am 05:40 Cloudy with Fog 39 4 N/A N/A S 3 6 29.70 1006 1 1 0.00 0.00
5:54 am 05:54 Cloudy with Mist and Fog 39 4 N/A N/A S 5 7 29.70 1006 1 1 0.00 0.00
5:56 am 05:56 Cloudy with Mist and Fog 39 4 N/A N/A S 6 9 29.70 1006 1 1 0.00 0.00
6:06 am 06:06 Cloudy with Fog 41 5 N/A N/A S 6 9 29.69 1005 1 1 0.00 0.00
6:19 am 06:19 Cloudy with Mist and Fog 41 5 N/A N/A SSW 6 9 29.71 1006 1 1 0.00 0.00
6:37 am 06:37 Cloudy with Fog 41 5 N/A N/A Calm 29.71 1006 1 1 0.00 0.00
6:56 am 06:56 Cloudy with Fog 41 5 N/A N/A S 6 9 29.72 1006 1 1 0.00 0.00
7:12 am 07:12 Cloudy with Fog 43 6 N/A N/A S 5 7 29.72 1006 0 0 0.00 0.00
7:56 am 07:56 Cloudy with Fog 45 7 N/A N/A SE 8 13 29.69 1006 0 0 0.00 0.00
8:04 am 08:04 Cloudy with Fog 45 7 N/A N/A SE 7 11 29.70 1006 1 1 0.00 0.00
8:11 am 08:11 Cloudy with Mist and Fog 45 7 N/A N/A ESE 9 15 29.69 1006 1 2 0.00 0.00
8:17 am 08:17 Cloudy with Mist and Fog 45 7 N/A N/A SE 9 15 29.69 1006 2 3 0.00 0.00
8:27 am 08:27 Cloudy with Haze 45 7 N/A N/A SSE 8 13 29.70 1006 5 8 0.00 0.00
8:42 am 08:42 Cloudy 46 8 N/A N/A SSE 8 13 29.71 1006 7 11 0.00 0.00
8:56 am 08:56 Cloudy 48 9 N/A N/A SE 10 17 29.69 1005 8 13 0.00 0.00
9:29 am 09:29 Cloudy 50 10 N/A N/A SSE 9 15 29.68 1005 9 14 0.00 0.00
9:53 am 09:53 Cloudy 52 11 N/A N/A S 9 15 29.68 1005 10 16 0.00 0.00
9:56 am 09:56 Cloudy 52 11 N/A N/A S 9 15 29.68 1005 10 16 0.00 0.00
10:34 am 10:34 Cloudy 52 11 N/A N/A SSE 15 24 29.64 1004 10 16 0.00 0.00
10:56 am 10:56 Mostly Cloudy 52 11 N/A N/A S 10 17 29.66 1004 10 16 0.00 0.00
11:56 am 11:56 Cloudy with Light Rain 52 11.1 52 11.1 100 100 S 13 20 29.65 1004 10 16 0.00 0.00
12:36 pm 12:36 Cloudy 52 11 N/A N/A SSE 15 24 29.62 1003 10 16 0.00 0.00
12:56 pm 12:56 Cloudy with Light Rain 54 12 N/A N/A SSE 13 20 29.59 1002 10 16 0.00 0.00
1:56 pm 13:56 Cloudy with Light Rain 54 12 N/A N/A SSE 12 19 29.57 1001 10 16 0.00 0.00
2:31 pm 14:31 Cloudy with Light Rain 55 13 N/A N/A SSW 7 11 29.56 1001 4 6 0.00 0.00
2:42 pm 14:42 Cloudy with Light Rain 54 12 N/A N/A W 13 20 29.57 1001 4 6 0.00 0.00
2:56 pm 14:56 Cloudy with Rain 54 12 N/A N/A W 14 22 29.59 1002 4 6 0.00 0.00
3:16 pm 15:16 Cloudy with Light Rain 54 12 N/A N/A W 14 22 29.59 1002 2 3 0.00 0.00
3:28 pm 15:28 Cloudy with Light Rain 52 11 N/A N/A W 14 22 29.59 1002 3 4 0.00 0.00
3:36 pm 15:36 Cloudy with Light Rain 52 11 N/A N/A W 15 24 29.60 1002 4 6 0.00 0.00
3:56 pm 15:56 Cloudy with Light Rain 52 11 N/A N/A W 15 24 29.61 1003 3 5 0.00 0.00
4:31 pm 16:31 Cloudy with Light Rain 52 11 N/A N/A SSW 6 9 29.58 1002 10 16 0.00 0.00
4:56 pm 16:56 Cloudy with Light Rain 52 11 N/A N/A SW 6 9 29.58 1002 10 16 0.00 0.00
5:06 pm 17:06 Cloudy 54 12 N/A N/A WSW 7 11 29.57 1001 10 16 0.00 0.00
5:25 pm 17:25 Cloudy 54 12 N/A N/A WSW 9 15 29.59 1002 10 16 0.00 0.00
5:33 pm 17:33 Cloudy 54 12 N/A N/A W 10 17 29.59 1002 10 16 0.00 0.00
5:56 pm 17:56 Mostly Cloudy 54 12 N/A N/A W 6 9 29.60 1003 10 16 0.00 0.00
6:56 pm 18:56 Mostly Cloudy 53 11.7 53 11.7 100 100 WNW 12 19 29.63 1004 10 16 0.00 0.00
7:08 pm 19:08 Mostly Cloudy 54 12 52 11 94 94 W 17 28 29.63 1003 10 16 0.00 0.00
7:56 pm 19:56 Mostly Cloudy 50 10 50 10 100 100 W 10 17 29.67 1005 10 16 0.00 0.00
8:56 pm 20:56 Mostly Cloudy 47 8.3 47 8.3 100 100 W 5 7 29.69 1005 10 16 0.00 0.00
9:56 pm 21:56 Clear 47 8.3 47 8.3 100 100 SW 3 6 29.69 1006 10 16 0.00 0.00
10:56 pm 22:56 Clear 45 7.2 45 7.2 100 100 SW 7 11 29.71 1006 10 16 0.00 0.00
11:56 pm 23:56 Clear 45 7.2 45 7.2 100 100 SSW 6 9 29.72 1006 10 16 0.00 0.00

Powered by AerisWeather